Putbus

Germany     54˚21′21″N   13˚28′32″E
temp.,
°C
wind,
m/s
gust,
m/s
humid.,
%
clouds,
%
prec.,
mm/h
press.,
hPa
HPBL,
m
28 november, sat
sat2801:00+6˚n23731 0.0 1024270
04:00+6˚n34740 0.0 1024379
07:00+6˚ne45760 0.0 1025598
10:00+6˚ene557315 0.0 1026704
13:00+6˚ene346758 0.0 1026962
16:00+6˚nne4579100 0.1 1026527
19:00+7˚ne4566100 0.2 1027772
22:00+7˚ne4565100 0.1 1027770
29 november, sun
sun2901:00+7˚nne6770100 0.1 1027787
04:00+6˚nne677669 0.1 1026697
07:00+6˚nne677077 0.2 1026843
10:00+5˚n6673100 0.1 1026795
13:00+6˚n5671100 0.1 1026737
16:00+4˚nnw667881 0.0 1025570
19:00+4˚nnw457956 0.0 1025394
22:00+4˚nw45780 0.0 1025368
30 november, mon
mon3001:00+3˚nw45791 0.0 1025378
04:00+3˚wnw45770 0.0 1024419
07:00+4˚nw457620 0.0 1024604
10:00+4˚wnw4676100 0.1 1024628
13:00+4˚wsw6886100 0.1 1023543
16:00+4˚wsw687599 0.0 1021536
19:00+3˚sw7985100 0.0 1020419
22:00+3˚ssw71083100 0.0 1019402
1 december, tue
tue101:00+3˚ssw71081100 0.0 1018383
04:00+3˚ssw6878100 0.0 1016388
07:00+2˚s6784100 0.1 1017392
10:00+2˚sse5693100 0.3 1017298
13:00+2˚sse348798 0.3 1018320
16:00+3˚se237668 0.0 1019320
19:00+3˚se347641 0.0 1021360
22:00+3˚se34760 0.0 1022395
2 december, wed
wed201:00+3˚se34760 0.0 1023359
04:00+3˚se34780 0.0 1023378
07:00+2˚se45780 0.0 1023367
10:00+2˚se34770 0.0 1023386
13:00+3˚sse23751 0.0 1022461
16:00+2˚sse33760 0.0 1020371
19:00+1˚s34780 0.0 1020300
22:00+1˚s45810 0.0 1019269